This is the latest recevied weather packets stored in our database for station/object N8ESC. If no packets are shown the sender has not sent any weather packets the latest 10 day(s).
| Time | Temp. | Humidity | Pressure | Rain* | Wind** | Luminosity | Snow |
|---|---|---|---|---|---|---|---|
| 1777250056 | 10.56° C | 75% | 1017.4 hPa | 0 mm | - | 11 W/m² | - |
| 1777249753 | 10.56° C | 74% | 1017.4 hPa | 0 mm | - | 15 W/m² | - |
| 1777249449 | 11.11° C | 73% | 1017.3 hPa | 0 mm | - | 20 W/m² | - |
| 1777249146 | 11.11° C | 73% | 1017.2 hPa | 0 mm | - | 26 W/m² | - |
| 1777248843 | 11.11° C | 73% | 1017.4 hPa | 0 mm | - | 28 W/m² | - |
| 1777248539 | 10.56° C | 73% | 1017.1 hPa | 0 mm | - | 37 W/m² | - |
| 1777248236 | 10.56° C | 74% | 1017.3 hPa | 0 mm | - | 37 W/m² | - |
| 1777247936 | 10.56° C | 74% | 1017.3 hPa | 0 mm | - | 37 W/m² | - |
| 1777247631 | 10.56° C | 73% | 1017.2 hPa | 0 mm | - | 40 W/m² | - |
| 1777247329 | 11.11° C | 72% | 1017.2 hPa | 0 mm | - | 43 W/m² | - |
| 1777247027 | 11.11° C | 71% | 1017.2 hPa | 0 mm | - | 49 W/m² | - |
| 1777246723 | 11.67° C | 69% | 1017.2 hPa | 0 mm | - | 60 W/m² | - |
| 1777246419 | 11.67° C | 68% | 1017.2 hPa | 0 mm | - | 68 W/m² | - |
| 1777246116 | 12.22° C | 67% | 1017.1 hPa | 0 mm | - | 71 W/m² | - |
| 1777245814 | 12.22° C | 66% | 1017.3 hPa | 0 mm | - | 93 W/m² | - |
| 1777245512 | 12.22° C | 65% | 1017.2 hPa | 0 mm | - | 153 W/m² | - |
| 1777245208 | 12.78° C | 66% | 1017.2 hPa | 0 mm | - | 136 W/m² | - |
| 1777244904 | 12.78° C | 65% | 1017.3 hPa | 0 mm | - | 169 W/m² | - |
| 1777244600 | 12.78° C | 65% | 1017.3 hPa | 0 mm | - | 220 W/m² | - |
| 1777244296 | 12.22° C | 67% | 1017.4 hPa | 0 mm | - | 245 W/m² | - |
| 1777243994 | 11.67° C | 70% | 1017.2 hPa | 0 mm | - | 200 W/m² | - |
| 1777243691 | 11.11° C | 71% | 1017.4 hPa | 0 mm | - | 141 W/m² | - |
| 1777243388 | 11.11° C | 70% | 1017.2 hPa | 0 mm | - | 123 W/m² | - |
| 1777243083 | 12.22° C | 68% | 1017.3 hPa | 0 mm | - | 112 W/m² | - |
| 1777242780 | 13.33° C | 62% | 1017.6 hPa | 0 mm | - | 159 W/m² | - |
* Rain latest hour (hover to see other rain measurements)
** Current wind speed in m/s (hover to see current wind gust speed)